User: anonymous   Login
Location: Vancouver
(49.2500°N, 123.1330°W)
Time: 23:02:39
(UTC-07:00)
Language:

Cosmos 1340 Rocket - Orbit

View from above orbital plane
View from above orbital plane
View from above satellite
View from above satellite

Ground track
Ground track

The orbit data is extracted from the following two-line orbital elements,

1 13068U 82013B   16243.17451680  .00000086  00000-0  41525-5 0  9996
2 13068  81.2047 194.6214 0021995 194.1031 165.9581 15.06675717879671
Epoch (UTC): 30 August 2016 04:11:18
Eccentricity: 0.0021995
inclination: 81.2047°
perigee height: 531 km
apogee height: 561 km
right ascension of ascending node: 194.6214°
argument of perigee: 194.1031°
revolutions per day: 15.06675717
mean anomaly at epoch: 165.9581°
orbit number at epoch: 87967

The dashed part of the orbit path shows where the satellite is in the earth's shadow,  

DLR